• In Spain
  • List of Countries
  • For 7 days
  • Water Temperature
  • Satellite Maps
  • Weather Map
  • Weather Widgets
  • user-avatar
    Login

    Hourly Weather Ganja

    Today, 24 August, Thursday

    Time Temperature Precipitation Wind Pressure Humidity
    00:00 +26°C° 0 mm 1 mps 724 mmHg 43%
    01:00 +26°C° 0 mm 1 mps 725 mmHg 45%
    02:00 +25°C° 0 mm 1 mps 725 mmHg 47%
    03:00 +24°C° 0 mm 1 mps 725 mmHg 49%
    04:00 +25°C° 0 mm 1 mps 725 mmHg 50%
    05:00 +25°C° 0 mm 1 mps 725 mmHg 50%
    06:00 +25°C° 0 mm 1 mps 726 mmHg 51%
    07:00 +27°C° 0 mm 2 mps 726 mmHg 44%
    08:00 +29°C° 0 mm 2 mps 726 mmHg 37%
    09:00 +31°C° 0 mm 2 mps 726 mmHg 30%
    10:00 +33°C° 0 mm 4 mps 726 mmHg 26%
    11:00 +35°C° 0 mm 5 mps 726 mmHg 23%
    12:00 +36°C° 0 mm 6 mps 726 mmHg 20%
    13:00 +38°C° 0 mm 6 mps 726 mmHg 20%
    14:00 +38°C° 0 mm 7 mps 725 mmHg 20%
    15:00 +38°C° 0 mm 7 mps 725 mmHg 20%
    16:00 +36°C° 0 mm 6 mps 725 mmHg 22%
    17:00 +35°C° 0 mm 6 mps 725 mmHg 24%
    18:00 +34°C° 0 mm 5 mps 725 mmHg 27%
    19:00 +32°C° 0 mm 5 mps 726 mmHg 30%
    20:00 +30°C° 0 mm 4 mps 726 mmHg 32%
    21:00 +28°C° 0 mm 4 mps 727 mmHg 35%
    22:00 +27°C° 0 mm 3 mps 727 mmHg 37%
    23:00 +26°C° 0 mm 3 mps 727 mmHg 38%

    Tomorrow, 25 August, Friday

    Time Temperature Precipitation Wind Pressure Humidity
    00:00 +25°C° 0 mm 2 mps 727 mmHg 40%
    01:00 +25°C° 0 mm 2 mps 727 mmHg 41%
    02:00 +24°C° 0 mm 1 mps 727 mmHg 42%
    03:00 +23°C° 0 mm 1 mps 727 mmHg 44%
    04:00 +23°C° 0 mm 1 mps 727 mmHg 43%
    05:00 +23°C° 0 mm 1 mps 727 mmHg 43%
    06:00 +23°C° 0 mm 1 mps 727 mmHg 42%
    07:00 +25°C° 0 mm 2 mps 727 mmHg 36%
    08:00 +28°C° 0 mm 2 mps 727 mmHg 31%
    09:00 +30°C° 0 mm 2 mps 727 mmHg 25%
    10:00 +31°C° 0 mm 2 mps 727 mmHg 22%
    11:00 +33°C° 0 mm 3 mps 727 mmHg 20%
    12:00 +35°C° 0 mm 3 mps 726 mmHg 17%
    13:00 +35°C° 0 mm 4 mps 726 mmHg 16%
    14:00 +36°C° 0 mm 5 mps 726 mmHg 15%
    15:00 +37°C° 0 mm 5 mps 725 mmHg 14%
    16:00 +36°C° 0 mm 5 mps 725 mmHg 16%
    17:00 +35°C° 0 mm 4 mps 725 mmHg 17%
    18:00 +34°C° 0 mm 4 mps 725 mmHg 19%
    19:00 +32°C° 0 mm 4 mps 726 mmHg 21%
    20:00 +29°C° 0 mm 4 mps 726 mmHg 23%
    21:00 +28°C° 0 mm 4 mps 727 mmHg 25%
    22:00 +27°C° 0 mm 4 mps 727 mmHg 27%
    23:00 +26°C° 0 mm 3 mps 727 mmHg 30%

    Day after tomorrow, 26 August, Saturday

    Time Temperature Precipitation Wind Pressure Humidity
    00:00 +25°C° 0 mm 3 mps 727 mmHg 32%
    01:00 +25°C° 0 mm 2 mps 727 mmHg 32%
    02:00 +24°C° 0 mm 2 mps 727 mmHg 33%
    03:00 +23°C° 0 mm 2 mps 727 mmHg 33%
    04:00 +23°C° 0 mm 2 mps 727 mmHg 33%
    05:00 +23°C° 0 mm 2 mps 727 mmHg 32%
    06:00 +23°C° 0 mm 2 mps 727 mmHg 31%
    07:00 +25°C° 0 mm 2 mps 727 mmHg 28%
    08:00 +27°C° 0 mm 2 mps 727 mmHg 25%
    09:00 +29°C° 0 mm 2 mps 727 mmHg 22%
    10:00 +30°C° 0 mm 3 mps 727 mmHg 21%
    11:00 +33°C° 0 mm 3 mps 726 mmHg 20%
    12:00 +34°C° 0 mm 4 mps 726 mmHg 19%
    13:00 +35°C° 0 mm 4 mps 726 mmHg 19%
    14:00 +35°C° 0 mm 5 mps 725 mmHg 19%
    15:00 +36°C° 0 mm 5 mps 725 mmHg 19%
    16:00 +35°C° 0 mm 5 mps 725 mmHg 21%
    17:00 +34°C° 0 mm 4 mps 725 mmHg 24%
    18:00 +33°C° 0 mm 4 mps 725 mmHg 26%
    19:00 +30°C° 0 mm 4 mps 725 mmHg 28%
    20:00 +29°C° 0 mm 4 mps 726 mmHg 30%
    21:00 +27°C° 0 mm 4 mps 726 mmHg 31%
    22:00 +26°C° 0 mm 3 mps 726 mmHg 33%
    23:00 +26°C° 0 mm 3 mps 726 mmHg 34%

    27 August, Sunday

    Time Temperature Precipitation Wind Pressure Humidity
    00:00 +25°C° 0 mm 3 mps 726 mmHg 36%
    01:00 +24°C° 0 mm 2 mps 726 mmHg 37%
    02:00 +24°C° 0 mm 2 mps 726 mmHg 38%
    03:00 +23°C° 0 mm 2 mps 726 mmHg 39%
    04:00 +23°C° 0 mm 1 mps 726 mmHg 39%
    05:00 +23°C° 0 mm 1 mps 726 mmHg 38%
    06:00 +23°C° 0 mm 1 mps 726 mmHg 38%
    07:00 +25°C° 0 mm 2 mps 726 mmHg 34%
    08:00 +27°C° 0 mm 2 mps 726 mmHg 31%
    09:00 +29°C° 0 mm 2 mps 726 mmHg 28%
    10:00 +30°C° 0 mm 3 mps 726 mmHg 26%
    11:00 +31°C° 0 mm 3 mps 725 mmHg 25%
    12:00 +34°C° 0 mm 4 mps 725 mmHg 24%
    13:00 +34°C° 0 mm 4 mps 725 mmHg 23%
    14:00 +35°C° 0 mm 5 mps 724 mmHg 23%
    15:00 +35°C° 0 mm 5 mps 724 mmHg 23%
    16:00 +34°C° 0 mm 5 mps 724 mmHg 25%
    17:00 +33°C° 0 mm 5 mps 724 mmHg 27%
    18:00 +33°C° 0 mm 4 mps 724 mmHg 29%
    19:00 +30°C° 0 mm 4 mps 725 mmHg 32%
    20:00 +28°C° 0 mm 4 mps 725 mmHg 35%
    21:00 +27°C° 0 mm 4 mps 726 mmHg 37%
    22:00 +26°C° 0 mm 3 mps 726 mmHg 39%
    23:00 +25°C° 0 mm 3 mps 726 mmHg 41%

    28 August, Monday

    Time Temperature Precipitation Wind Pressure Humidity
    00:00 +25°C° 0 mm 3 mps 726 mmHg 43%
    01:00 +24°C° 0 mm 2 mps 725 mmHg 45%
    02:00 +24°C° 0 mm 2 mps 725 mmHg 46%
    03:00 +23°C° 0 mm 2 mps 725 mmHg 47%
    04:00 +23°C° 0 mm 2 mps 725 mmHg 46%
    05:00 +23°C° 0 mm 1 mps 725 mmHg 45%
    06:00 +23°C° 0 mm 1 mps 726 mmHg 45%
    07:00 +25°C° 0 mm 1 mps 726 mmHg 41%
    08:00 +26°C° 0 mm 1 mps 725 mmHg 37%
    09:00 +28°C° 0 mm 2 mps 725 mmHg 33%
    10:00 +30°C° 0 mm 2 mps 725 mmHg 31%
    11:00 +31°C° 0 mm 2 mps 724 mmHg 29%
    12:00 +33°C° 0 mm 3 mps 724 mmHg 27%
    13:00 +34°C° 0 mm 3 mps 724 mmHg 26%
    14:00 +34°C° 0 mm 3 mps 723 mmHg 25%
    15:00 +35°C° 0 mm 4 mps 723 mmHg 25%
    16:00 +34°C° 0 mm 4 mps 723 mmHg 27%
    17:00 +34°C° 0 mm 3 mps 723 mmHg 29%
    18:00 +33°C° 0 mm 3 mps 723 mmHg 31%
    19:00 +30°C° 0 mm 3 mps 724 mmHg 33%
    20:00 +29°C° 0 mm 3 mps 724 mmHg 36%
    21:00 +27°C° 0 mm 3 mps 724 mmHg 38%
    22:00 +27°C° 0 mm 3 mps 724 mmHg 40%
    23:00 +26°C° 0 mm 3 mps 724 mmHg 41%

    29 August, Tuesday

    Time Temperature Precipitation Wind Pressure Humidity
    00:00 +25°C° 0 mm 2 mps 724 mmHg 43%
    01:00 +25°C° 0 mm 2 mps 724 mmHg 44%
    02:00 +24°C° 0 mm 2 mps 724 mmHg 46%
    03:00 +24°C° 0 mm 1 mps 724 mmHg 47%
    04:00 +23°C° 0 mm 1 mps 724 mmHg 46%
    05:00 +23°C° 0 mm 1 mps 724 mmHg 46%
    06:00 +23°C° 0 mm 1 mps 724 mmHg 45%
    07:00 +25°C° 0 mm 2 mps 724 mmHg 41%
    08:00 +27°C° 0 mm 2 mps 723 mmHg 37%
    09:00 +29°C° 0 mm 2 mps 723 mmHg 33%
    10:00 +31°C° 0 mm 2 mps 723 mmHg 31%
    11:00 +32°C° 0 mm 2 mps 722 mmHg 28%
    12:00 +34°C° 0 mm 2 mps 722 mmHg 26%
    13:00 +35°C° 0 mm 2 mps 721 mmHg 25%
    14:00 +35°C° 0 mm 2 mps 721 mmHg 25%
    15:00 +36°C° 0 mm 3 mps 720 mmHg 24%
    16:00 +35°C° 0 mm 2 mps 720 mmHg 27%
    17:00 +34°C° 0 mm 2 mps 720 mmHg 29%
    18:00 +32°C° 0 mm 2 mps 720 mmHg 32%
    19:00 +31°C° 0 mm 2 mps 721 mmHg 34%
    20:00 +30°C° 0 mm 2 mps 721 mmHg 36%
    21:00 +28°C° 0 mm 2 mps 721 mmHg 38%
    22:00 +28°C° 0 mm 1 mps 721 mmHg 38%
    23:00 +27°C° 0 mm 1 mps 721 mmHg 39%
    Show more